When you browse on this site, cookies collect data to enhance your experience and personalize the content and advertising you see.
Visit our Privacy Policy to learn more. By continuing to use the site, you agree to this use of cookies and data.
  • In Sweden
  • List of Countries
  • For 7 days
  • Water Temperature
  • Weather Map
  • Weather Widgets
  • user-avatar
    Login

    Hourly Weather Tiba

    Today, 26 August, Monday

    Time Temperature Precipitation Wind Pressure Humidity
    00:00 +28°C° 0 mm 1 mps 758 mmHg 63%
    01:00 +28°C° 0.1 mm 1 mps 757 mmHg 64%
    02:00 +28°C° 0.1 mm 1 mps 757 mmHg 65%
    03:00 +27°C° 0 mm 2 mps 757 mmHg 65%
    04:00 +27°C° 0.1 mm 2 mps 758 mmHg 66%
    05:00 +27°C° 0.1 mm 2 mps 758 mmHg 67%
    06:00 +27°C° 0.1 mm 2 mps 759 mmHg 69%
    07:00 +28°C° 0.4 mm 2 mps 759 mmHg 62%
    08:00 +29°C° 0.4 mm 3 mps 759 mmHg 56%
    09:00 +30°C° 0 mm 2 mps 759 mmHg 53%
    10:00 +31°C° 0.2 mm 2 mps 759 mmHg 50%
    11:00 +31°C° 0.2 mm 3 mps 759 mmHg 47%
    12:00 +33°C° 0.2 mm 3 mps 758 mmHg 44%
    13:00 +33°C° 0 mm 4 mps 758 mmHg 45%
    14:00 +33°C° 0 mm 4 mps 758 mmHg 47%
    15:00 +32°C° 0 mm 5 mps 758 mmHg 48%
    16:00 +30°C° 0.1 mm 4 mps 758 mmHg 52%
    17:00 +30°C° 0.1 mm 4 mps 758 mmHg 57%
    18:00 +29°C° 0.1 mm 4 mps 759 mmHg 61%
    19:00 +28°C° 0 mm 3 mps 759 mmHg 63%
    20:00 +28°C° 0 mm 3 mps 760 mmHg 65%
    21:00 +28°C° 0 mm 2 mps 760 mmHg 68%
    22:00 +27°C° 0.1 mm 3 mps 760 mmHg 69%
    23:00 +27°C° 0.1 mm 3 mps 760 mmHg 70%

    Tomorrow, 27 August, Tuesday

    Time Temperature Precipitation Wind Pressure Humidity
    00:00 +27°C° 0.1 mm 3 mps 760 mmHg 71%
    01:00 +27°C° 0.1 mm 3 mps 760 mmHg 72%
    02:00 +26°C° 0.1 mm 3 mps 760 mmHg 72%
    03:00 +26°C° 0.1 mm 3 mps 760 mmHg 73%
    04:00 +26°C° 0 mm 2 mps 760 mmHg 73%
    05:00 +26°C° 0 mm 2 mps 760 mmHg 73%
    06:00 +26°C° 0 mm 2 mps 761 mmHg 74%
    07:00 +27°C° 0 mm 1 mps 760 mmHg 67%
    08:00 +29°C° 0 mm 1 mps 760 mmHg 61%
    09:00 +30°C° 0 mm 1 mps 760 mmHg 55%
    10:00 +31°C° 0 mm 1 mps 760 mmHg 52%
    11:00 +32°C° 0 mm 1 mps 760 mmHg 50%
    12:00 +32°C° 0 mm 2 mps 760 mmHg 47%
    13:00 +32°C° 0.1 mm 2 mps 760 mmHg 49%
    14:00 +33°C° 0.1 mm 3 mps 759 mmHg 50%
    15:00 +33°C° 0.1 mm 3 mps 759 mmHg 52%
    16:00 +31°C° 0.1 mm 3 mps 759 mmHg 55%
    17:00 +30°C° 0.1 mm 3 mps 759 mmHg 58%
    18:00 +30°C° 0.1 mm 3 mps 759 mmHg 62%
    19:00 +29°C° 0 mm 3 mps 759 mmHg 62%
    20:00 +29°C° 0 mm 3 mps 760 mmHg 63%
    21:00 +29°C° 0 mm 3 mps 760 mmHg 64%
    22:00 +29°C° 0 mm 3 mps 760 mmHg 65%
    23:00 +28°C° 0 mm 4 mps 759 mmHg 66%

    Day after tomorrow, 28 August, Wednesday

    Time Temperature Precipitation Wind Pressure Humidity
    00:00 +28°C° 0 mm 4 mps 759 mmHg 67%
    01:00 +28°C° 0 mm 5 mps 758 mmHg 70%
    02:00 +28°C° 0 mm 5 mps 758 mmHg 72%
    03:00 +27°C° 0 mm 6 mps 758 mmHg 74%
    04:00 +27°C° 0.2 mm 6 mps 757 mmHg 75%
    05:00 +27°C° 0.2 mm 7 mps 757 mmHg 76%
    06:00 +27°C° 0.2 mm 7 mps 757 mmHg 77%
    07:00 +28°C° 0.4 mm 8 mps 757 mmHg 76%
    08:00 +28°C° 0.4 mm 8 mps 757 mmHg 75%
    09:00 +28°C° 0.4 mm 8 mps 757 mmHg 73%
    10:00 +29°C° 0.1 mm 9 mps 756 mmHg 70%
    11:00 +29°C° 0.1 mm 9 mps 756 mmHg 67%
    12:00 +29°C° 0.1 mm 10 mps 756 mmHg 64%
    13:00 +31°C° 0 mm 10 mps 755 mmHg 62%
    14:00 +31°C° 0 mm 10 mps 755 mmHg 61%
    15:00 +31°C° 0 mm 11 mps 754 mmHg 59%
    16:00 +31°C° 0 mm 10 mps 755 mmHg 60%
    17:00 +31°C° 0 mm 10 mps 755 mmHg 61%
    18:00 +29°C° 0 mm 10 mps 755 mmHg 62%
    19:00 +29°C° 0 mm 9 mps 755 mmHg 63%
    20:00 +29°C° 0 mm 9 mps 755 mmHg 63%
    21:00 +29°C° 0 mm 8 mps 755 mmHg 64%
    22:00 +29°C° 0 mm 8 mps 754 mmHg 66%
    23:00 +29°C° 0 mm 7 mps 754 mmHg 67%

    29 August, Thursday

    Time Temperature Precipitation Wind Pressure Humidity
    00:00 +29°C° 0 mm 7 mps 754 mmHg 69%
    01:00 +29°C° 0 mm 7 mps 754 mmHg 70%
    02:00 +29°C° 0 mm 7 mps 754 mmHg 71%
    03:00 +29°C° 0 mm 7 mps 753 mmHg 72%
    04:00 +29°C° 0 mm 6 mps 753 mmHg 71%
    05:00 +29°C° 0 mm 6 mps 754 mmHg 70%
    06:00 +30°C° 0 mm 6 mps 754 mmHg 70%
    07:00 +32°C° 0 mm 6 mps 754 mmHg 66%
    08:00 +33°C° 0 mm 7 mps 754 mmHg 62%
    09:00 +34°C° 0 mm 7 mps 754 mmHg 58%
    10:00 +34°C° 0 mm 8 mps 753 mmHg 56%
    11:00 +35°C° 0 mm 8 mps 753 mmHg 54%
    12:00 +37°C° 0 mm 8 mps 753 mmHg 52%
    13:00 +37°C° 0 mm 8 mps 753 mmHg 53%
    14:00 +35°C° 0 mm 8 mps 753 mmHg 53%
    15:00 +35°C° 0 mm 7 mps 753 mmHg 54%
    16:00 +35°C° 0 mm 6 mps 753 mmHg 56%
    17:00 +34°C° 0 mm 5 mps 753 mmHg 59%
    18:00 +33°C° 0 mm 4 mps 754 mmHg 61%
    19:00 +33°C° 0 mm 4 mps 754 mmHg 63%
    20:00 +31°C° 0 mm 3 mps 755 mmHg 65%
    21:00 +31°C° 0 mm 3 mps 755 mmHg 67%
    22:00 +30°C° 0 mm 3 mps 755 mmHg 68%
    23:00 +30°C° 0 mm 3 mps 755 mmHg 69%

    30 August, Friday

    Time Temperature Precipitation Wind Pressure Humidity
    00:00 +30°C° 0 mm 3 mps 755 mmHg 70%
    01:00 +29°C° 0 mm 3 mps 755 mmHg 70%
    02:00 +29°C° 0 mm 3 mps 755 mmHg 71%
    03:00 +29°C° 0 mm 3 mps 755 mmHg 72%
    04:00 +29°C° 0 mm 2 mps 755 mmHg 72%
    05:00 +29°C° 0 mm 2 mps 755 mmHg 72%
    06:00 +29°C° 0 mm 2 mps 756 mmHg 73%
    07:00 +30°C° 0 mm 2 mps 756 mmHg 67%
    08:00 +31°C° 0 mm 2 mps 756 mmHg 62%
    09:00 +34°C° 0 mm 2 mps 756 mmHg 57%
    10:00 +35°C° 0 mm 2 mps 756 mmHg 53%
    11:00 +36°C° 0 mm 2 mps 755 mmHg 50%
    12:00 +37°C° 0 mm 2 mps 755 mmHg 46%
    13:00 +37°C° 0 mm 3 mps 755 mmHg 46%
    14:00 +37°C° 0 mm 3 mps 755 mmHg 47%
    15:00 +37°C° 0 mm 3 mps 755 mmHg 47%
    16:00 +36°C° 0 mm 4 mps 755 mmHg 53%
    17:00 +34°C° 0 mm 5 mps 755 mmHg 59%
    18:00 +33°C° 0 mm 5 mps 756 mmHg 65%
    19:00 +33°C° 0 mm 5 mps 756 mmHg 66%
    20:00 +33°C° 0 mm 5 mps 756 mmHg 66%
    21:00 +32°C° 0 mm 5 mps 756 mmHg 67%
    22:00 +32°C° 0.1 mm 5 mps 756 mmHg 66%
    23:00 +32°C° 0.1 mm 5 mps 756 mmHg 66%

    31 August, Saturday

    Time Temperature Precipitation Wind Pressure Humidity
    00:00 +32°C° 0.1 mm 5 mps 756 mmHg 66%
    01:00 +32°C° 0 mm 4 mps 756 mmHg 66%
    02:00 +30°C° 0 mm 4 mps 756 mmHg 66%
    03:00 +30°C° 0 mm 3 mps 756 mmHg 66%
    04:00 +30°C° 0.1 mm 3 mps 756 mmHg 67%
    05:00 +29°C° 0.1 mm 3 mps 757 mmHg 67%
    06:00 +29°C° 0.1 mm 3 mps 757 mmHg 68%
    07:00 +30°C° 0 mm 3 mps 757 mmHg 66%
    08:00 +30°C° 0 mm 3 mps 758 mmHg 65%
    09:00 +30°C° 0 mm 3 mps 758 mmHg 63%
    10:00 +31°C° 0 mm 3 mps 758 mmHg 60%
    11:00 +33°C° 0 mm 3 mps 758 mmHg 57%
    12:00 +34°C° 0 mm 3 mps 758 mmHg 55%
    13:00 +34°C° 0 mm 3 mps 758 mmHg 55%
    14:00 +33°C° 0 mm 4 mps 757 mmHg 56%
    15:00 +33°C° 0 mm 4 mps 757 mmHg 57%
    16:00 +33°C° 0 mm 4 mps 758 mmHg 59%
    17:00 +32°C° 0 mm 4 mps 758 mmHg 61%
    18:00 +32°C° 0 mm 4 mps 758 mmHg 63%
    19:00 +30°C° 0 mm 4 mps 759 mmHg 65%
    20:00 +30°C° 0 mm 4 mps 759 mmHg 66%
    21:00 +29°C° 0 mm 4 mps 759 mmHg 68%
    22:00 +29°C° 0 mm 4 mps 759 mmHg 70%
    23:00 +29°C° 0 mm 4 mps 759 mmHg 72%
    Show more